Latest Coastal Weather Observations for Northern Endeavour (near 10.5S 126E)

IDD60701

Issued at 8:25 pm CST Thursday 28 August 2014 (issued every 10 minutes, with the page automatically refreshed every 10 minutes)

About coastal observations | Map of coastal stations | Coastal observations for NT | Marine services | Other Formats
Station Details ID: 200212 Name: NORTHERN ENDEAVOUR Lat: -10.61 Lon: 125.98 Height: 16.0 m
Data from the previous 72 hours. | See also: Recent months for locations in Northern Territory
Date/Time
CST
Temp

°C
Wind Pressure Rain
since 9am
mm
Weather Cloud Vis
km
Sea
Height
m
Swell
Dir
 
Speed
knots
Gust
knots
hPa Trend Height
m
Period
s
Dir
28/08:20pm 26.4 E 16 17 1013.6 - - - Partly cloudy 10 - - - -
28/08:10pm 26.6 E 15 19 1013.5 - - - Partly cloudy 10 - - - -
28/08:00pm 26.3 E 12 18 1013.4 - - - Partly cloudy 10 - - - -
28/06:10pm 26.5 ESE 9 11 1012.4 - - - Partly cloudy 10 - - - -
28/06:00pm 27.1 ESE 11 11 1012.3 - - - Partly cloudy 10 - - - -
28/05:50pm 26.7 ESE 10 11 1012.3 - - - Partly cloudy 10 - - - -
28/05:40pm 27.0 ESE 11 12 1012.1 - - - Partly cloudy 10 - - - -
28/05:30pm 27.2 ESE 10 12 1012.0 - - - Partly cloudy 10 - - - -
28/05:20pm 27.4 ESE 10 11 1012.0 - - - Partly cloudy 10 - - - -
28/05:10pm 27.6 ESE 9 11 1011.9 - - - Partly cloudy 10 - - - -
28/05:00pm 27.3 ESE 8 9 1011.9 - - - Partly cloudy 10 - - - -
28/04:50pm 27.1 E 7 10 1011.8 - - - - 10 - - - -
28/04:40pm 27.0 ESE 7 8 1011.8 - - - - 10 - - - -
28/04:30pm 27.5 ESE 8 9 1012.0 - - - Partly cloudy 10 - - - -
28/04:20pm 28.0 ESE 9 8 1012.0 - - - Partly cloudy 10 - - - -
28/04:10pm 27.6 ESE 9 10 1012.1 - - - Partly cloudy 10 - - - -
28/04:00pm 27.5 ESE 8 11 1012.0 - - - - 10 - - - -
28/03:50pm 26.8 E 7 8 1012.1 - - - Partly cloudy 10 - - - -
28/03:40pm 26.9 ESE 8 10 1012.1 - - - Partly cloudy 10 - - - -
28/03:30pm 27.3 ESE 8 10 1012.3 - - - Partly cloudy 10 - - - -
28/03:20pm 27.2 E 8 10 1012.4 - - - - 10 - - - -
28/03:10pm 26.8 E 7 8 1012.5 - - - Partly cloudy 10 - - - -
28/03:00pm 26.7 E 7 9 1012.5 - - - Partly cloudy 10 - - - -
28/02:50pm 26.5 E 8 9 1012.5 - - - Partly cloudy 10 - - - -
28/02:40pm 26.6 E 7 9 1012.6 - - - Partly cloudy 10 - - - -
28/02:30pm 26.9 E 8 10 1012.7 - - - Partly cloudy 10 - - - -
28/02:20pm 26.6 E 8 11 1012.7 - - - - 10 - - - -
28/02:10pm 26.8 E 8 9 1012.8 - - - - 10 - - - -
28/02:00pm 26.8 E 7 9 1013.0 - - - - 10 - - - -
28/01:50pm 26.7 E 7 12 1013.1 - - - - 10 - - - -
28/01:40pm 26.6 E 7 11 1013.3 - - - - 10 - - - -
28/01:30pm 26.8 E 8 10 1013.3 - - - - 10 - - - -
28/01:20pm 26.6 E 8 10 1013.4 - - - - 10 - - - -
28/01:10pm 26.4 E 9 13 1013.6 - - - - 10 - - - -
28/01:00pm 26.9 E 9 13 1013.7 - - - - 10 - - - -
28/12:50pm 26.7 E 8 13 1013.9 - - - - 10 - - - -
28/12:40pm 26.6 E 8 12 1013.9 - - - - 10 - - - -
28/12:30pm 26.9 E 9 11 1014.1 - - - - 10 - - - -
28/12:20pm 26.9 E 9 11 1014.2 - - - - 10 - - - -
28/12:10pm 26.9 E 11 10 1014.3 - - - - 10 - - - -
28/12:00pm 27.6 E 11 13 1014.4 - - - - 10 - - - -
28/11:50am 27.0 E 9 12 1014.5 - - - - 10 - - - -
28/11:40am 26.7 E 10 10 1014.5 - - - - 10 - - - -
28/11:30am 27.9 E 12 12 1014.6 - - - - 10 - - - -
28/11:20am 27.6 E 11 13 1014.6 - - - - 10 - - - -
28/11:10am 27.2 E 11 13 1014.6 - - - - 10 - - - -
28/11:00am 27.5 E 11 13 1014.8 - - - - 10 - - - -
28/10:50am 28.2 E 10 10 1014.9 - - - - 10 - - - -
28/10:40am 27.9 E 10 10 1015.1 - - - - 10 - - - -
28/10:30am 28.3 E 10 13 1015.2 - - - - 10 - - - -
28/10:20am 28.2 E 10 12 1015.2 - - - - 10 - - - -
28/10:10am 28.0 E 10 12 1015.2 - - - - 10 - - - -
28/10:00am 27.6 E 10 12 1015.1 - - - - 10 - - - -
28/09:50am 27.4 E 8 10 1015.1 - - - - 10 - - - -
28/09:40am 27.5 E 9 13 1015.1 - - - - 10 - - - -
28/09:30am 27.4 ESE 10 11 1014.9 - - - - 10 - - - -
28/09:20am 27.3 ESE 10 13 1014.8 - - - - 10 - - - -
28/09:10am 27.0 ESE 9 12 1014.9 - - - - 10 - - - -
28/09:00am 26.8 ESE 9 12 1014.8 - - - - 10 - - - -
28/08:50am 26.9 ESE 9 12 1014.7 - - - - 10 - - - -
28/08:40am 26.8 ESE 9 13 1014.6 - - - - 10 - - - -
28/08:30am 26.7 ESE 9 9 1014.4 - - - - 10 - - - -
28/08:20am 26.5 ESE 8 10 1014.3 - - - - 10 - - - -
28/08:10am 26.2 ESE 8 10 1014.2 - - - - 10 - - - -
28/08:00am 25.9 ESE 8 8 1014.1 - - - - 10 - - - -
28/07:50am 25.3 ESE 7 8 1014.0 - - - - 10 - - - -
28/07:40am 25.2 ESE 8 8 1014.0 - - - - 10 - - - -
28/07:30am 25.1 ESE 9 11 1013.9 - - - - 10 - - - -
28/07:20am 25.2 SE 9 11 1013.8 - - - - 10 - - - -
28/07:10am 25.0 SE 8 11 1013.6 - - - - 10 - - - -
28/07:00am 24.9 SE 7 8 1013.5 - - - - 10 - - - -
28/06:50am 25.0 SE 8 11 1013.5 - - - - 10 - - - -
28/06:40am 25.0 ESE 6 7 1013.5 - - - - 10 - - - -
28/06:30am 25.1 ESE 8 9 1013.5 - - - - 10 - - - -
28/06:20am 25.0 ESE 7 9 1013.4 - - - - 10 - - - -
28/06:10am 25.1 E 6 8 1013.4 - - - - 10 - - - -
28/06:00am 25.2 SE 7 10 1013.4 - - - - 10 - - - -
28/05:50am 25.2 SE 7 9 1013.4 - - - - 10 - - - -
28/05:40am 25.2 SE 7 7 1013.2 - - - - 10 - - - -
28/05:30am 25.2 SE 7 8 1013.2 - - - - 10 - - - -
28/05:20am 25.2 SE 7 8 1013.2 - - - - 10 - - - -
28/05:10am 25.2 SE 8 8 1013.2 - - - - 10 - - - -
28/05:00am 25.2 ESE 7 10 1013.2 - - - - 10 - - - -
28/04:50am 25.2 ESE 6 8 1013.1 - - - - 10 - - - -
28/04:40am 25.2 ESE 6 6 1013.1 - - - - 10 - - - -
28/04:30am 25.2 ESE 8 8 1013.1 - - - - 10 - - - -
28/04:20am 25.3 ESE 7 9 1013.1 - - - - 10 - - - -
28/04:10am 25.3 ESE 7 7 1013.1 - - - - 10 - - - -
28/04:00am 25.3 ESE 8 8 1013.0 - - - - 10 - - - -
28/03:50am 25.3 E 9 9 1013.0 - - - - 10 - - - -
28/03:40am 25.4 E 9 10 1013.1 - - - - 10 - - - -
28/03:30am 25.3 E 7 9 1013.2 - - - - 10 - - - -
28/03:20am 25.4 E 6 9 1013.3 - - - - 10 - - - -
28/03:10am 25.4 E 7 11 1013.3 - - - - 10 - - - -
28/03:00am 25.4 E 7 8 1013.3 - - - - 10 - - - -
28/02:50am 25.5 E 8 9 1013.3 - - - - 10 - - - -
28/02:40am 25.5 E 7 10 1013.3 - - - - 10 - - - -
28/02:30am 25.5 E 8 10 1013.4 - - - - 10 - - - -
28/02:20am 25.5 E 8 11 1013.4 - - - - 10 - - - -
28/02:10am 25.6 E 8 10 1013.5 - - - - 10 - - - -
28/02:00am 25.7 E 10 11 1013.6 - - - - 10 - - - -
28/01:50am 25.7 E 9 10 1013.6 - - - - 10 - - - -
28/01:40am 25.7 E 10 10 1013.7 - - - - 10 - - - -
28/01:30am 25.6 E 9 14 1013.9 - - - - 10 - - - -
28/01:20am 25.8 E 12 11 1014.0 - - - - 10 - - - -
28/01:10am 25.9 E 12 13 1014.2 - - - - 10 - - - -
28/01:00am 25.9 E 12 14 1014.3 - - - - 10 - - - -
28/12:50am 25.9 E 11 13 1014.4 - - - - 10 - - - -
28/12:40am 26.0 E 14 14 1014.4 - - - - 10 - - - -
28/12:30am 26.0 E 14 16 1014.4 - - - - 10 - - - -
28/12:20am 26.0 E 14 16 1014.5 - - - - 10 - - - -
28/12:10am 26.1 E 15 15 1014.5 - - - - 10 - - - -
28/12:00am 26.0 E 15 16 1014.5 - - - - 10 - - - -
 
Date/Time
CST
Temp

°C
Wind Pressure Rain
since 9am
mm
Weather Cloud Vis
km
Sea
Height
m
Swell
Dir
 
Speed
knots
Gust
knots
hPa Trend Height
m
Period
s
Dir
27/11:50pm 26.1 E 15 17 1014.5 - - - - 10 - - - -
27/11:40pm 26.1 E 16 18 1014.4 - - - - 10 - - - -
27/11:30pm 26.1 E 15 17 1014.5 - - - - 10 - - - -
27/11:20pm 26.1 E 16 17 1014.5 - - - - 10 - - - -
27/11:10pm 26.2 E 16 17 1014.5 - - - - 10 - - - -
27/11:00pm 26.2 E 17 19 1014.5 - - - - 10 - - - -
27/10:50pm 26.2 E 16 18 1014.5 - - - - 10 - - - -
27/10:40pm 26.2 E 18 18 1014.3 - - - Partly cloudy 10 - - - -
27/10:30pm 26.3 E 18 19 1014.3 - - - Partly cloudy 10 - - - -
27/10:20pm 26.3 E 18 20 1014.1 - - - Partly cloudy 10 - - - -
27/10:10pm 26.1 E 17 18 1014.1 - - - Partly cloudy 10 - - - -
27/10:00pm 26.1 E 14 15 1014.0 - - - Partly cloudy 10 - - - -
27/09:50pm 26.1 E 13 15 1013.9 - - - Partly cloudy 10 - - - -
27/09:40pm 25.9 E 13 14 1013.9 - - - - 10 - - - -
27/09:30pm 25.9 E 13 15 1013.8 - - - Partly cloudy 10 - - - -
27/09:20pm 26.0 E 13 13 1013.8 - - - Partly cloudy 10 - - - -
27/09:10pm 26.0 E 14 14 1013.7 - - - Partly cloudy 10 - - - -
27/09:00pm 26.1 E 15 15 1013.6 - - - Partly cloudy 10 - - - -
27/08:50pm 26.1 E 14 14 1013.5 - - - Partly cloudy 10 - - - -
27/08:40pm 26.1 E 15 17 1013.4 - - - Partly cloudy 10 - - - -
27/08:30pm 26.1 E 14 18 1013.3 - - - Partly cloudy 10 - - - -
27/08:20pm 26.2 E 14 17 1013.2 - - - - 10 - - - -
27/08:10pm 26.2 E 13 14 1013.1 - - - - 10 - - - -
27/08:00pm 25.9 E 11 12 1013.0 - - - - 10 - - - -
27/07:50pm 26.2 E 10 13 1012.8 - - - - 10 - - - -
27/07:40pm 26.0 E 10 11 1012.8 - - - - 10 - - - -
27/07:30pm 26.1 E 8 12 1012.7 - - - - 10 - - - -
27/07:20pm 26.0 E 7 10 1012.5 - - - - 10 - - - -
27/07:10pm 26.1 E 9 9 1012.4 - - - - 10 - - - -
27/07:00pm 26.2 ENE 7 11 1012.3 - - - - 10 - - - -
27/06:50pm 26.3 ENE 7 9 1012.2 - - - - 10 - - - -
27/06:40pm 26.4 ENE 8 11 1012.0 - - - - 10 - - - -
27/06:30pm 26.5 ENE 7 11 1011.9 - - - - 10 - - - -
27/06:20pm 26.5 ENE 9 9 1011.8 - - - - 10 - - - -
27/06:10pm 26.7 ENE 8 11 1011.9 - - - - 10 - - - -
27/06:00pm 26.8 ENE 9 9 1011.9 - - - - 10 - - - -
27/05:50pm 26.8 ENE 9 10 1011.9 - - - - 10 - - - -
27/05:40pm 26.6 NE 8 9 1011.9 - - - - 10 - - - -
27/05:30pm 26.8 ENE 9 10 1011.8 - - - - 10 - - - -
27/05:20pm 26.7 ENE 8 10 1011.7 - - - - 10 - - - -
27/05:10pm 26.9 ENE 8 9 1011.6 - - - - 10 - - - -
27/05:00pm 26.7 ENE 7 8 1011.5 - - - - 10 - - - -
27/04:50pm 26.8 ENE 7 9 1011.5 - - - - 10 - - - -
27/04:40pm 27.1 ENE 7 8 1011.5 - - - - 10 - - - -
27/04:30pm 27.0 ENE 8 10 1011.5 - - - - 10 - - - -
27/04:20pm 26.6 ENE 7 6 1011.4 - - - - 10 - - - -
27/04:10pm 26.8 E 9 10 1011.5 - - - - 10 - - - -
27/04:00pm 26.6 E 8 11 1011.5 - - - - 10 - - - -
27/03:50pm 26.6 E 8 9 1011.5 - - - - 10 - - - -
27/03:40pm 26.7 E 8 10 1011.6 - - - - 10 - - - -
27/03:30pm 26.8 E 7 9 1011.7 - - - - 10 - - - -
27/03:20pm 26.7 E 8 9 1011.8 - - - - 10 - - - -
27/03:10pm 26.8 E 9 9 1011.9 - - - - 10 - - - -
27/03:00pm 26.8 E 8 11 1012.1 - - - - 10 - - - -
27/02:50pm 27.0 E 7 9 1012.2 - - - - 10 - - - -
27/02:40pm 26.9 E 7 9 1012.3 - - - - 10 - - - -
27/02:30pm 27.2 E 6 9 1012.5 - - - - 10 - - - -
27/02:20pm 26.8 E 7 10 1012.6 - - - - 10 - - - -
27/02:10pm 26.8 E 6 8 1012.8 - - - - 10 - - - -
27/02:00pm 27.1 ESE 6 9 1012.8 - - - - 10 - - - -
27/01:50pm 27.1 E 6 8 1012.9 - - - - 10 - - - -
27/01:40pm 26.8 E 7 9 1013.0 - - - - 10 - - - -
27/01:30pm 26.8 E 5 6 1013.0 - - - - 10 - - - -
27/01:20pm 27.0 E 5 8 1013.0 - - - - 10 - - - -
27/01:10pm 27.3 E 5 7 1013.1 - - - - 10 - - - -
27/01:00pm 26.8 ENE 5 6 1013.2 - - - - 10 - - - -
27/12:50pm 26.9 ENE 5 7 1013.3 - - - - 10 - - - -
27/12:40pm 26.9 ENE 6 6 1013.4 - - - - 10 - - - -
27/12:30pm 26.9 ENE 6 7 1013.6 - - - - 10 - - - -
27/12:20pm 27.2 ENE 5 7 1013.6 - - - - 10 - - - -
27/12:10pm 27.2 E 5 7 1013.7 - - - - 10 - - - -
27/12:00pm 27.2 E 5 6 1013.8 - - - - 10 - - - -
27/11:50am 26.8 NE 5 8 1013.9 - - - - 10 - - - -
27/11:40am 27.0 ENE 5 6 1013.9 - - - - 10 - - - -
27/11:30am 27.6 E 6 6 1014.0 - - - - 10 - - - -
27/11:20am 27.3 E 7 7 1014.1 - - - - 10 - - - -
27/11:10am 27.5 E 7 7 1014.2 - - - - 10 - - - -
27/11:00am 27.9 E 7 7 1014.2 - - - - 10 - - - -
27/10:50am 27.4 E 7 8 1014.3 - - - - 10 - - - -
27/10:40am 28.9 E 8 9 1014.3 - - - - 10 - - - -
27/10:30am 28.1 E 8 9 1014.4 - - - - 10 - - - -
27/10:20am 28.7 E 8 9 1014.5 - - - - 10 - - - -
27/10:10am 28.2 E 8 9 1014.4 - - - - 10 - - - -
27/10:00am 28.4 E 8 11 1014.4 - - - - 10 - - - -
27/09:50am 28.3 E 7 7 1014.4 - - - - 10 - - - -
27/09:40am 27.7 ESE 6 6 1014.3 - - - - 10 - - - -
27/09:30am 28.0 ESE 8 12 1014.3 - - - - 10 - - - -
27/09:20am 27.9 ESE 8 7 1014.3 - - - - 10 - - - -
27/09:10am 27.7 E 7 11 1014.2 - - - - 10 - - - -
27/09:00am 27.6 E 7 9 1014.2 - - - - 10 - - - -
27/08:50am 27.5 ESE 7 9 1014.2 - - - - 10 - - - -
27/08:40am 27.4 ESE 7 11 1014.1 - - - - 10 - - - -
27/08:30am 29.1 ESE 8 8 1013.9 - - - - 10 - - - -
27/08:20am 29.6 ESE 9 11 1013.8 - - - - 10 - - - -
27/08:10am 27.3 ESE 8 12 1013.6 - - - - 10 - - - -
27/08:00am 26.4 ESE 8 11 1013.5 - - - - 10 - - - -
27/07:50am 26.0 ESE 8 9 1013.5 - - - - 10 - - - -
27/07:40am 25.7 ESE 9 9 1013.4 - - - - 10 - - - -
27/07:30am 25.6 ESE 9 9 1013.3 - - - - 10 - - - -
27/07:20am 25.6 ESE 8 8 1013.3 - - - - 10 - - - -
27/07:10am 25.5 ESE 8 9 1013.2 - - - - 10 - - - -
27/07:00am 25.5 ESE 8 9 1013.0 - - - - 10 - - - -
27/06:50am 25.5 SE 8 9 1012.9 - - - - 10 - - - -
27/06:40am 25.4 SE 9 11 1012.7 - - - - 10 - - - -
27/06:30am 25.5 SE 9 11 1012.7 - - - - 10 - - - -
27/06:20am 25.6 SE 8 11 1012.6 - - - - 10 - - - -
27/06:10am 25.6 SE 8 10 1012.5 - - - - 10 - - - -
27/06:00am 25.6 SE 9 10 1012.4 - - - - 10 - - - -
27/05:50am 25.5 SE 9 10 1012.3 - - - - 10 - - - -
27/05:40am 25.6 SE 9 11 1012.2 - - - - 10 - - - -
27/05:30am 25.6 SE 9 11 1012.1 - - - - 10 - - - -
27/05:20am 25.6 SE 9 10 1012.1 - - - - 10 - - - -
27/05:10am 25.8 SE 9 10 1012.1 - - - - 10 - - - -
27/05:00am 25.7 SE 10 10 1012.0 - - - - 10 - - - -
27/04:50am 25.7 SE 9 11 1012.0 - - - - 10 - - - -
27/04:40am 25.7 SE 8 11 1012.0 - - - - 10 - - - -
27/04:30am 25.8 SE 10 11 1012.1 - - - - 10 - - - -
27/04:20am 25.8 SE 10 12 1012.1 - - - - 10 - - - -
27/04:10am 25.9 SE 11 12 1012.2 - - - - 10 - - - -
27/04:00am 25.9 SE 11 12 1012.2 - - - - 10 - - - -
27/03:50am 26.0 SE 10 13 1012.2 - - - - 10 - - - -
27/03:40am 25.9 SE 10 12 1012.2 - - - - 10 - - - -
27/03:30am 25.9 SE 9 11 1012.2 - - - - 10 - - - -
27/03:20am 26.1 SE 10 14 1012.3 - - - - 10 - - - -
27/03:10am 26.1 SE 11 12 1012.5 - - - - 10 - - - -
27/03:00am 26.1 SE 10 15 1012.7 - - - - 10 - - - -
27/02:50am 26.1 SE 9 12 1012.7 - - - - 10 - - - -
27/02:40am 26.1 ESE 10 12 1012.9 - - - - 10 - - - -
27/02:30am 26.2 ESE 11 14 1012.9 - - - - 10 - - - -
27/02:20am 26.1 ESE 10 14 1013.0 - - - - 10 - - - -
27/02:10am 26.1 SE 9 11 1013.1 - - - - 10 - - - -
27/02:00am 26.1 ESE 10 12 1013.2 - - - - 10 - - - -
27/01:50am 26.1 ESE 11 15 1013.3 - - - - 10 - - - -
27/01:40am 26.2 ESE 11 14 1013.4 - - - - 10 - - - -
27/01:30am 26.3 ESE 9 14 1013.5 - - - - 10 - - - -
27/01:20am 26.2 ESE 10 11 1013.5 - - - - 10 - - - -
27/01:10am 26.1 ESE 10 12 1013.7 - - - - 10 - - - -
27/01:00am 26.2 ESE 12 14 1013.7 - - - - 10 - - - -
27/12:50am 25.9 ESE 10 12 1013.7 - - - - 10 - - - -
27/12:40am 26.0 ESE 9 14 1013.8 - - - - 10 - - - -
27/12:30am 25.9 ESE 10 13 1013.9 - - - - 10 - - - -
27/12:20am 25.9 ESE 10 14 1014.0 - - - - 10 - - - -
27/12:10am 25.9 ESE 9 12 1014.0 - - - - 10 - - - -
27/12:00am 25.9 E 10 13 1014.0 - - - - 10 - - - -
 
Date/Time
CST
Temp

°C
Wind Pressure Rain
since 9am
mm
Weather Cloud Vis
km
Sea
Height
m
Swell
Dir
 
Speed
knots
Gust
knots
hPa Trend Height
m
Period
s
Dir
26/11:50pm 26.0 E 12 13 1014.1 - - - - 10 - - - -
26/11:40pm 26.1 E 11 12 1014.1 - - - - 10 - - - -
26/11:30pm 26.1 E 13 13 1014.2 - - - - 10 - - - -
26/11:20pm 26.1 E 14 17 1014.1 - - - Partly cloudy 10 - - - -
26/11:10pm 26.1 E 13 14 1014.1 - - - - 10 - - - -
26/11:00pm 26.2 E 14 15 1014.0 - - - - 10 - - - -
26/10:50pm 26.2 E 13 16 1014.0 - - - - 10 - - - -
26/10:40pm 26.2 E 11 15 1014.0 - - - - 10 - - - -
26/10:30pm 26.3 E 13 15 1014.0 - - - - 10 - - - -
26/10:20pm 26.2 E 14 15 1013.9 - - - Partly cloudy 10 - - - -
26/10:10pm 26.3 E 13 16 1013.9 - - - Partly cloudy 10 - - - -
26/10:00pm 26.1 ENE 12 16 1013.8 - - - Partly cloudy 10 - - - -
26/09:50pm 26.1 E 12 12 1013.8 - - - Partly cloudy 10 - - - -
26/09:40pm 26.2 E 11 15 1013.8 - - - Partly cloudy 10 - - - -
26/09:30pm 26.1 E 13 16 1013.8 - - - Partly cloudy 10 - - - -
26/09:20pm 26.1 ENE 13 16 1013.7 - - - Partly cloudy 10 - - - -
26/09:10pm 26.1 E 13 14 1013.6 - - - Partly cloudy 10 - - - -
26/09:00pm 26.1 ENE 13 17 1013.4 - - - Partly cloudy 10 - - - -
26/08:50pm 26.1 ENE 12 15 1013.4 - - - Partly cloudy 10 - - - -
26/08:40pm 26.1 ENE 13 16 1013.3 - - - Partly cloudy 10 - - - -
26/08:30pm 26.2 ENE 12 14 1013.2 - - - Partly cloudy 10 - - - -
26/08:20pm 26.2 E 12 14 1013.1 - - - Partly cloudy 10 - - - -
26/08:10pm 26.1 E 10 14 1013.0 - - - Partly cloudy 10 - - - -
26/08:00pm 26.0 E 8 11 1012.9 - - - Partly cloudy 10 - - - -
26/07:50pm 26.1 ENE 9 10 1012.8 - - - Partly cloudy 10 - - - -
26/07:40pm 26.1 ENE 10 11 1012.7 - - - Partly cloudy 10 - - - -
26/07:30pm 26.0 ENE 8 11 1012.5 - - - Partly cloudy 10 - - - -
26/07:20pm 26.0 ENE 9 10 1012.4 - - - Partly cloudy 10 - - - -
26/07:10pm 26.0 ENE 8 9 1012.3 - - - Partly cloudy 10 - - - -
26/07:00pm 26.1 ENE 9 11 1012.2 - - - Partly cloudy 10 - - - -
26/06:50pm 26.1 ENE 7 8 1012.2 - - - Partly cloudy 10 - - - -
26/06:40pm 26.1 ENE 7 8 1012.1 - - - - 10 - - - -
26/06:30pm 26.4 ENE 7 12 1012.0 - - - - 10 - - - -
26/06:20pm 26.4 ENE 7 9 1011.8 - - - - 10 - - - -
26/06:10pm 26.6 ENE 7 9 1011.7 - - - Partly cloudy 10 - - - -
26/06:00pm 26.6 ENE 7 10 1011.6 - - - Partly cloudy 10 - - - -
26/05:50pm 26.7 ENE 8 8 1011.6 - - - Partly cloudy 10 - - - -
26/05:40pm 26.7 ENE 7 12 1011.6 - - - - 10 - - - -
26/05:30pm 26.6 ENE 6 8 1011.6 - - - - 10 - - - -
26/05:20pm 26.7 NE 5 8 1011.5 - - - - 10 - - - -
26/05:10pm 26.6 ENE 6 7 1011.5 - - - - 10 - - - -
26/05:00pm 26.5 ENE 5 8 1011.4 - - - - 10 - - - -
26/04:50pm 26.6 NE 4 6 1011.4 - - - - 10 - - - -
26/04:40pm 26.3 NE 5 6 1011.4 - - - - 10 - - - -
26/04:30pm 26.6 ENE 5 5 1011.4 - - - - 10 - - - -
26/04:20pm 26.3 NE 5 6 1011.5 - - - - 10 - - - -
26/04:10pm 26.2 ENE 6 6 1011.5 - - - - 10 - - - -
26/04:00pm 26.2 ENE 5 5 1011.5 - - - - 10 - - - -
26/03:50pm 26.2 ENE 6 6 1011.6 - - - - 10 - - - -
26/03:40pm 26.2 ENE 6 6 1011.7 - - - - 10 - - - -
26/03:30pm 26.1 ENE 5 6 1011.8 - - - - 10 - - - -
26/03:20pm 26.3 E 4 6 1011.8 - - - - 10 - - - -
26/03:10pm 26.1 ENE 4 6 1011.9 - - - - 10 - - - -
26/03:00pm 26.1 ENE 5 6 1011.9 - - - - 10 - - - -
26/02:50pm 26.0 E 5 6 1012.0 - - - - 10 - - - -
26/02:40pm 25.9 ENE 5 6 1012.0 - - - - 10 - - - -
26/02:30pm 26.0 ENE 3 4 1012.1 - - - - 10 - - - -
26/02:20pm 25.9 ENE 4 5 1012.2 - - - - 10 - - - -
26/02:10pm 26.0 NE 3 4 1012.3 - - - - 10 - - - -
26/02:00pm 26.0 NE 4 4 1012.5 - - - - 10 - - - -
26/01:50pm 25.9 NNE 4 5 1012.7 - - - - 10 - - - -
26/01:40pm 26.0 NE 3 4 1012.7 - - - - 10 - - - -
26/01:30pm 26.0 ENE 3 4 1012.9 - - - - 10 - - - -
26/01:20pm 25.8 ENE 4 6 1013.1 - - - - 10 - - - -
26/01:10pm 25.8 E 4 5 1013.3 - - - - 10 - - - -
26/01:00pm 25.8 E 5 5 1013.5 - - - - 10 - - - -
26/12:50pm 25.8 E 4 5 1013.8 - - - - 10 - - - -
26/12:40pm 25.8 E 5 4 1014.0 - - - - 10 - - - -
26/12:30pm 25.8 ESE 4 6 1014.1 - - - - 10 - - - -
26/12:20pm 25.8 ESE 4 4 1014.2 - - - - 10 - - - -
26/12:10pm 25.7 ESE 5 5 1014.3 - - - - 10 - - - -
26/12:00pm 25.7 ESE 5 6 1014.4 - - - - 10 - - - -
26/11:50am 25.9 SE 4 5 1014.6 - - - - 10 - - - -
26/11:40am 25.7 ESE 3 5 1014.7 - - - - 10 - - - -
26/11:30am 25.8 SE 3 4 1014.8 - - - - 10 - - - -
26/11:20am 25.8 SE 4 5 1014.8 - - - - 10 - - - -
26/11:10am 26.1 SE 3 5 1014.8 - - - - 10 - - - -
26/11:00am 26.0 SE 3 4 1014.9 - - - - 10 - - - -
26/10:50am 26.2 SSE 4 4 1015.0 - - - - 10 - - - -
26/10:40am 26.6 SE 4 5 1015.1 - - - - 10 - - - -
26/10:30am 26.4 SSE 5 6 1015.1 - - - - 10 - - - -
26/10:20am 26.7 SSE 4 5 1015.1 - - - - 10 - - - -
26/10:10am 28.1 S 3 4 1015.1 - - - - 9 - - - -
26/10:00am 27.9 S 3 5 1015.2 - - - - 10 - - - -
26/09:50am 27.7 S 3 3 1015.3 - - - - 10 - - - -
26/09:40am 27.6 S 2 4 1015.3 - - - - 10 - - - -
26/09:30am 27.0 SSE 3 3 1015.2 - - - - 10 - - - -
26/09:20am 27.3 S 3 5 1015.2 - - - - 10 - - - -
26/09:10am 27.2 SE 2 3 1015.2 - - - - 10 - - - -
26/09:00am 26.8 E 1 3 1015.1 - - - - 10 - - - -
26/08:50am 26.5 NNE 1 2 1015.0 - - - - 10 - - - -
26/08:40am 25.8 NE 3 2 1014.9 - - - - 10 - - - -
26/08:30am 25.6 NE 3 4 1014.8 - - - - 10 - - - -
26/08:20am 25.6 NNE 3 3 1014.6 - - - - 10 - - - -
26/08:10am 25.6 NNE 4 4 1014.5 - - - - 10 - - - -
26/08:00am 25.6 NNE 3 3 1014.4 - - - - 10 - - - -
26/07:50am 25.4 NE 2 3 1014.2 - - - - 10 - - - -
26/07:40am 25.2 NE 1 2 1014.0 - - - - 10 - - - -
26/07:30am 25.2 N 1 2 1013.9 - - - - 10 - - - -
26/07:20am 25.0 S 2 2 1013.8 - - - - 10 - - - -
26/07:10am 25.1 S 3 4 1013.7 - - - - 10 - - - -
26/07:00am 25.3 SSE 3 7 1013.7 - - - - 10 - - - -
26/06:50am 25.3 SE 3 4 1013.6 - - - - 10 - - - -
26/06:40am 25.1 ESE 4 4 1013.6 - - - - 10 - - - -
26/06:30am 25.1 SE 5 5 1013.5 - - - - 10 - - - -
26/06:20am 25.1 SE 6 9 1013.5 - - - - 10 - - - -
26/06:10am 25.2 SE 5 9 1013.5 - - - - 10 - - - -
26/06:00am 25.1 SE 6 8 1013.4 - - - - 10 - - - -
26/05:50am 25.1 SE 7 7 1013.3 - - - - 10 - - - -
26/05:40am 25.2 SSE 7 9 1013.3 - - - - 10 - - - -
26/05:30am 25.2 SE 7 8 1013.2 - - - - 10 - - - -
26/05:20am 25.2 SE 7 10 1013.2 - - - - 10 - - - -
26/05:10am 25.1 SE 6 8 1013.2 - - - - 10 - - - -
26/05:00am 25.2 SE 6 7 1013.2 - - - - 10 - - - -
26/04:50am 25.2 SSE 7 8 1013.1 - - - - 10 - - - -
26/04:40am 25.3 SE 7 10 1013.2 - - - - 10 - - - -
26/04:30am 25.2 SE 6 9 1013.2 - - - - 10 - - - -
26/04:20am 25.3 SSE 7 9 1013.2 - - - - 10 - - - -
26/04:10am 25.4 SSE 7 8 1013.2 - - - - 10 - - - -
26/04:00am 25.2 SE 6 8 1013.1 - - - - 10 - - - -
26/03:50am 25.2 SE 6 7 1013.1 - - - - 10 - - - -
26/03:40am 25.2 SSE 6 7 1013.2 - - - - 10 - - - -
26/03:30am 25.3 SSE 7 9 1013.3 - - - - 10 - - - -
26/03:20am 25.3 SSE 6 8 1013.4 - - - - 10 - - - -
26/03:10am 25.3 SE 5 8 1013.4 - - - - 10 - - - -
26/03:00am 25.3 SE 6 6 1013.6 - - - - 10 - - - -
26/02:50am 25.3 SE 7 8 1013.7 - - - - 10 - - - -
26/02:40am 25.4 SE 7 7 1013.7 - - - - 10 - - - -
26/02:30am 25.4 SE 7 8 1013.7 - - - - 10 - - - -
26/02:20am 25.4 SE 7 8 1013.7 - - - - 10 - - - -
26/02:10am 25.4 SE 7 9 1013.8 - - - - 10 - - - -
26/02:00am 25.4 SE 7 10 1013.9 - - - - 10 - - - -
26/01:50am 25.4 SE 8 10 1013.9 - - - - 10 - - - -
26/01:40am 25.5 SE 8 9 1014.0 - - - - 10 - - - -
26/01:30am 25.5 SE 8 10 1014.0 - - - - 10 - - - -
26/01:20am 25.5 SE 7 9 1014.1 - - - - 10 - - - -
26/01:10am 25.4 SSE 6 8 1014.1 - - - - 10 - - - -
26/01:00am 25.5 SE 6 9 1014.2 - - - - 10 - - - -
26/12:50am 25.6 SSE 6 7 1014.3 - - - - 10 - - - -
26/12:40am 25.6 SSE 7 8 1014.4 - - - - 10 - - - -
26/12:30am 25.6 SSE 7 9 1014.4 - - - - 10 - - - -
26/12:20am 25.6 SSE 8 9 1014.5 - - - - 10 - - - -
26/12:10am 25.7 SE 8 10 1014.5 - - - - 10 - - - -
26/12:00am 25.7 SE 9 8 1014.5 - - - - 10 - - - -
 
Date/Time
CST
Temp

°C
Wind Pressure Rain
since 9am
mm
Weather Cloud Vis
km
Sea
Height
m
Swell
Dir
 
Speed
knots
Gust
knots
hPa Trend Height
m
Period
s
Dir
25/11:50pm 25.6 SE 8 9 1014.6 - - - - 10 - - - -
25/11:40pm 25.7 SE 7 9 1014.7 - - - - 10 - - - -
25/11:30pm 25.7 SE 8 11 1014.7 - - - - 10 - - - -
25/11:20pm 25.6 SE 9 10 1014.6 - - - - 10 - - - -
25/11:10pm 25.8 SE 12 11 1014.7 - - - - 10 - - - -
25/11:00pm 25.7 SE 12 13 1014.8 - - - - 10 - - - -
25/10:50pm 25.8 SE 12 14 1014.7 - - - Partly cloudy 10 - - - -
25/10:40pm 25.8 SE 12 13 1014.7 - - - - 10 - - - -
25/10:30pm 25.8 SE 12 13 1014.6 - - - Partly cloudy 10 - - - -
25/10:20pm 25.8 SE 13 15 1014.5 - - - Partly cloudy 10 - - - -
25/10:10pm 25.9 SE 12 15 1014.5 - - - Partly cloudy 10 - - - -
25/10:00pm 25.8 SE 12 13 1014.5 - - - Partly cloudy 10 - - - -
25/09:50pm 25.8 SE 12 13 1014.4 - - - Partly cloudy 10 - - - -
25/09:40pm 25.9 SE 11 14 1014.3 - - - - 10 - - - -
25/09:30pm 25.8 ESE 12 12 1014.2 - - - - 10 - - - -
25/09:20pm 25.8 ESE 10 11 1014.2 - - - - 10 - - - -
25/09:10pm 25.8 ESE 9 11 1014.1 - - - - 10 - - - -
25/09:00pm 25.9 ESE 11 13 1014.0 - - - - 10 - - - -
25/08:50pm 25.8 ESE 10 12 1013.9 - - - Partly cloudy 10 - - - -
25/08:40pm 25.8 ESE 10 12 1013.8 - - - Partly cloudy 10 - - - -
25/08:30pm 25.9 ESE 11 13 1013.6 - - - Partly cloudy 10 - - - -

Other Formats:

Comma delimited format used in spreadsheet applications
http://www.bom.gov.au/fwo/IDD60701/IDD60701.95100.axf

JavaScript Object Notation format (JSON) in row-major order
http://www.bom.gov.au/fwo/IDD60701/IDD60701.95100.json